Weather History for Prescott, AZ

Change the Weather History Date:

Thursday, January 30, 2014

  Actual Average Record
Temperature  
Mean Temperature 51 °F 40 °F  
Max Temperature 61 °F 53 °F 70 °F (1971)
Min Temperature 41 °F 27 °F -5 °F (1979)
Degree Days  
Heating Degree Days 14    
Month to date heating degree days 633  
Since 1 July heating degree days 2370  
Cooling Degree Days 0    
Month to date cooling degree days 0  
Year to date cooling degree days 0  
Moisture  
Dew Point 19 °F    
Average Humidity 28    
Maximum Humidity 41    
Minimum Humidity 21    
Precipitation  
Precipitation 0.00 in 0.04 in 0.71 in (1980)
Month to date precipitation 0.00 1.08  
Year to date precipitation 0.00 1.08  
Sea Level Pressure  
Sea Level Pressure 29.77 in    
Wind  
Wind Speed 12 mph (SSW)    
Max Wind Speed 26 mph    
Max Gust Speed 35 mph    
Visibility 10 miles    
Events      
T = Trace of Precipitation, MM = Missing Value Source: NWS Daily Summary

Daily Weather History Graph

Daily Weather History Graph

Search for Another Location

Airport:

Trip Planner

Search our weather history database for the weather conditions in past years. The results will help you decide how hot, cold, wet, or windy it might be!

Date:

Astronomy

Jan. 30, 2014 Rise Set
Actual Time 7:29 AM MST 5:57 PM MST
Civil Twilight 7:02 AM MST 6:23 PM MST
Nautical Twilight 6:32 AM MST 6:54 PM MST
Astronomical Twilight 6:02 AM MST 7:23 PM MST
Moon 6:59 AM MST (1/30) 6:10 PM MST (1/30)
Length of Visible Light 11h 21m
Length of Day
10h 28m
Waning Crescent, 0% of the Moon is Illuminated
Jan 30
Waning Crescent
Jan 30
New
Feb 6
First Quarter
Feb 14
Full
Feb 22
Last Quarter

Hourly Weather History & Observations

Time (MST) Temp. Windchill Dew Point Humidity Pressure Visibility Wind Dir Wind Speed Gust Speed Precip Events Conditions
12:53 AM 46.0 °F 41.9 °F 16.0 °F 30% 29.87 in 10.0 mi ESE 8.1 mph - N/A   Clear
1:53 AM 46.0 °F 40.6 °F 16.0 °F 30% 29.85 in 10.0 mi ESE 11.5 mph - N/A   Clear
2:53 AM 41.0 °F 38.0 °F 19.9 °F 43% 29.84 in 10.0 mi South 4.6 mph - N/A   Clear
3:53 AM 44.1 °F 42.5 °F 18.0 °F 35% 29.82 in 10.0 mi South 3.5 mph - N/A   Clear
4:53 AM 48.9 °F - 18.0 °F 29% 29.80 in 10.0 mi SSW 13.8 mph - N/A   Clear
5:53 AM 48.0 °F - 17.1 °F 29% 29.82 in 10.0 mi South 11.5 mph - N/A   Clear
6:53 AM 48.0 °F - 15.1 °F 27% 29.83 in 10.0 mi SW 4.6 mph - N/A   Clear
7:53 AM 48.9 °F - 10.9 °F 22% 29.84 in 10.0 mi South 5.8 mph - N/A   Clear
8:53 AM 48.9 °F - 15.1 °F 26% 29.86 in 10.0 mi South 6.9 mph - N/A   Clear
9:53 AM 54.0 °F - 15.1 °F 22% 29.85 in 10.0 mi Variable 4.6 mph - N/A   Clear
10:53 AM 57.0 °F - 18.0 °F 22% 29.85 in 10.0 mi South 15.0 mph 18.4 mph N/A   Mostly Cloudy
11:53 AM 59.0 °F - 19.9 °F 22% 29.81 in 10.0 mi South 13.8 mph - N/A   Mostly Cloudy
12:53 PM 59.0 °F - 21.9 °F 24% 29.78 in 10.0 mi South 10.4 mph 23.0 mph N/A   Mostly Cloudy
1:53 PM 60.1 °F - 21.9 °F 23% 29.74 in 10.0 mi SSW 12.7 mph 20.7 mph N/A   Mostly Cloudy
2:53 PM 60.1 °F - 23.0 °F 24% 29.74 in 10.0 mi SSW 15.0 mph 21.9 mph N/A   Mostly Cloudy
3:53 PM 57.0 °F - 23.0 °F 27% 29.72 in 10.0 mi SSW 16.1 mph 24.2 mph N/A   Scattered Clouds
4:53 PM 55.9 °F - 21.9 °F 27% 29.69 in 10.0 mi SW 19.6 mph 31.1 mph N/A   Mostly Cloudy
5:53 PM 54.0 °F - 21.9 °F 29% 29.70 in 10.0 mi SSW 12.7 mph - N/A   Scattered Clouds
6:53 PM 52.0 °F - 21.0 °F 30% 29.71 in 10.0 mi SSW 10.4 mph - N/A   Clear
7:53 PM 52.0 °F - 21.9 °F 31% 29.70 in 10.0 mi South 8.1 mph - N/A   Clear
8:53 PM 53.1 °F - 23.0 °F 31% 29.68 in 10.0 mi SSW 17.3 mph 24.2 mph N/A   Clear
9:53 PM 52.0 °F - 21.9 °F 31% 29.67 in 10.0 mi SSW 16.1 mph 27.6 mph N/A   Clear
10:53 PM 51.1 °F - 23.0 °F 33% 29.65 in 10.0 mi SSW 21.9 mph 29.9 mph N/A   Clear
11:53 PM 50.0 °F - 23.0 °F 35% 29.64 in 10.0 mi SW 15.0 mph 26.5 mph N/A   Clear